| time (UTC) | temp F | wind direction | speed MPH | gust MPH | rain 1hr in | rain 24hr in | rain mn in | humidity % | barometer mb |
| 20260905133904 | 50 | 161 | 0.0 | 0.0 | 0.00 | 0.02 | 0.00 | 94 | 1017.3 |
| 20260905133404 | 51 | 161 | 0.0 | 0.0 | 0.00 | 0.02 | 0.00 | 94 | 1017.2 |
| 20260905132403 | 51 | 162 | 0.0 | 0.0 | 0.00 | 0.02 | 0.00 | 94 | 1017.1 |
| 20260905131903 | 51 | 162 | 0.0 | 0.0 | 0.00 | 0.02 | 0.00 | 94 | 1017.2 |
| 20260905130403 | 51 | 162 | 0.0 | 0.0 | 0.00 | 0.02 | 0.00 | 94 | 1017.1 |
| 20260905125903 | 51 | 162 | 0.0 | 0.0 | 0.00 | 0.02 | 0.00 | 94 | 1017.0 |
| 20260905123904 | 52 | 162 | 0.0 | 0.0 | 0.00 | 0.04 | 0.00 | 94 | 1016.9 |
| 20260905122904 | 52 | 162 | 0.0 | 0.0 | 0.00 | 0.04 | 0.00 | 94 | 1016.9 |
| 20260905122403 | 52 | 162 | 0.0 | 0.0 | 0.00 | 0.05 | 0.00 | 95 | 1017.0 |
| 20260905121404 | 52 | 162 | 0.0 | 0.0 | 0.00 | 0.05 | 0.00 | 95 | 1016.9 |
| 20260905120904 | 52 | 162 | 0.0 | 0.0 | 0.00 | 0.05 | 0.00 | 95 | 1016.9 |
| 20260905115903 | 52 | 162 | 0.0 | 0.0 | 0.00 | 0.05 | 0.00 | 95 | 1016.9 |
| 20260905114904 | 52 | 78 | 0.0 | 0.0 | 0.00 | 0.05 | 0.00 | 95 | 1016.8 |
| 20260905114403 | 52 | 39 | 0.0 | 0.0 | 0.00 | 0.05 | 0.00 | 95 | 1016.8 |
| 20260905113904 | 52 | 39 | 0.0 | 0.0 | 0.00 | 0.05 | 0.00 | 95 | 1016.7 |
| 20260905113404 | 52 | 59 | 0.0 | 0.0 | 0.00 | 0.05 | 0.00 | 95 | 1016.7 |
| 20260905112904 | 52 | 75 | 0.0 | 0.0 | 0.00 | 0.05 | 0.00 | 95 | 1016.7 |
| 20260905112403 | 52 | 75 | 0.0 | 0.0 | 0.00 | 0.05 | 0.00 | 95 | 1016.8 |
| 20260905111904 | 52 | 75 | 0.0 | 0.0 | 0.00 | 0.05 | 0.00 | 95 | 1016.8 |
| 20260905111404 | 51 | 75 | 0.0 | 0.0 | 0.00 | 0.05 | 0.00 | 95 | 1016.8 |
| 20260905110903 | 51 | 75 | 0.0 | 0.0 | 0.00 | 0.05 | 0.00 | 95 | 1016.8 |
| 20260905110404 | 51 | 75 | 0.0 | 0.0 | 0.00 | 0.05 | 0.00 | 95 | 1016.8 |
| 20260905105903 | 51 | 75 | 0.0 | 0.0 | 0.00 | 0.05 | 0.00 | 95 | 1016.9 |
| 20260905105404 | 51 | 76 | 0.0 | 0.0 | 0.00 | 0.05 | 0.00 | 95 | 1016.9 |
| 20260905104903 | 51 | 82 | 0.0 | 0.0 | 0.00 | 0.05 | 0.00 | 95 | 1016.9 |
| 20260905104403 | 51 | 134 | 0.0 | 0.0 | 0.00 | 0.05 | 0.00 | 95 | 1016.9 |
| 20260905103903 | 51 | 165 | 0.0 | 0.0 | 0.00 | 0.05 | 0.00 | 95 | 1016.9 |
| 20260905103404 | 51 | 165 | 0.0 | 0.0 | 0.00 | 0.05 | 0.00 | 95 | 1016.8 |
| 20260905102404 | 51 | 165 | 0.0 | 0.0 | 0.00 | 0.05 | 0.00 | 95 | 1016.7 |
| 20260905101404 | 51 | 83 | 0.0 | 0.0 | 0.00 | 0.05 | 0.00 | 94 | 1016.7 |
| 20260905100904 | 51 | 83 | 0.0 | 0.0 | 0.00 | 0.05 | 0.00 | 95 | 1016.7 |
| 20260905100404 | 51 | 83 | 0.0 | 0.0 | 0.00 | 0.05 | 0.00 | 95 | 1016.7 |
| 20260905095905 | 51 | 83 | 0.0 | 0.0 | 0.00 | 0.05 | 0.00 | 95 | 1016.8 |
| 20260905095403 | 51 | 83 | 0.0 | 0.0 | 0.00 | 0.05 | 0.00 | 95 | 1016.8 |
| 20260905094904 | 51 | 80 | 0.0 | 0.0 | 0.00 | 0.05 | 0.00 | 94 | 1016.7 |
| 20260905093403 | 51 | 80 | 0.0 | 0.0 | 0.00 | 0.05 | 0.00 | 94 | 1016.8 |
| 20260905092903 | 51 | 80 | 0.0 | 0.0 | 0.00 | 0.05 | 0.00 | 94 | 1016.8 |
| 20260905092404 | 51 | 80 | 0.0 | 0.0 | 0.00 | 0.05 | 0.00 | 94 | 1016.7 |
| 20260905091904 | 51 | 80 | 0.0 | 0.0 | 0.00 | 0.05 | 0.00 | 93 | 1016.7 |
| 20260905091404 | 51 | 80 | 0.0 | 0.0 | 0.00 | 0.05 | 0.00 | 93 | 1016.7 |
| 20260905090904 | 51 | 80 | 0.0 | 0.0 | 0.00 | 0.05 | 0.00 | 93 | 1016.5 |
| 20260905085904 | 52 | 80 | 0.0 | 0.0 | 0.00 | 0.05 | 0.00 | 93 | 1016.4 |
| 20260905085404 | 52 | 80 | 0.0 | 0.0 | 0.00 | 0.05 | 0.00 | 93 | 1016.5 |
| 20260905084403 | 52 | 80 | 0.0 | 0.0 | 0.00 | 0.05 | 0.00 | 93 | 1016.5 |
| 20260905083904 | 52 | 80 | 0.0 | 0.0 | 0.00 | 0.05 | 0.00 | 93 | 1016.4 |
| 20260905083403 | 52 | 80 | 0.0 | 0.0 | 0.00 | 0.05 | 0.00 | 93 | 1016.4 |
| 20260905082904 | 52 | 80 | 0.0 | 0.0 | 0.00 | 0.05 | 0.00 | 93 | 1016.3 |
| 20260905082404 | 52 | 80 | 0.0 | 0.0 | 0.00 | 0.05 | 0.00 | 93 | 1016.4 |
| 20260905081403 | 53 | 80 | 0.0 | 0.0 | 0.00 | 0.05 | 0.00 | 92 | 1016.4 |
| 20260905080904 | 53 | 80 | 0.0 | 0.0 | 0.00 | 0.05 | 0.00 | 93 | 1016.4 |
| 20260905080403 | 53 | 80 | 0.0 | 0.0 | 0.00 | 0.05 | 0.00 | 93 | 1016.3 |
| 20260905075903 | 53 | 80 | 0.0 | 0.0 | 0.00 | 0.05 | 0.00 | 93 | 1016.3 |
| 20260905075404 | 53 | 80 | 0.0 | 0.0 | 0.00 | 0.05 | 0.00 | 93 | 1016.3 |
| 20260905074903 | 53 | 80 | 0.0 | 0.0 | 0.00 | 0.05 | 0.00 | 93 | 1016.2 |
| 20260905073904 | 53 | 80 | 0.0 | 0.0 | 0.00 | 0.05 | 0.00 | 93 | 1016.2 |
| 20260905073402 | 53 | 80 | 0.0 | 0.0 | 0.00 | 0.05 | 0.00 | 93 | 1016.2 |
| 20260905072902 | 53 | 80 | 0.0 | 0.0 | 0.00 | 0.05 | 0.00 | 93 | 1016.2 |
| 20260905072403 | 53 | 80 | 0.0 | 0.0 | 0.00 | 0.05 | 0.00 | 93 | 1016.1 |
| 20260905071402 | 53 | 80 | 0.0 | 0.0 | 0.00 | 0.05 | 0.00 | 93 | 1016.2 |
| 20260905070902 | 53 | 80 | 0.0 | 0.0 | 0.00 | 0.05 | 0.00 | 93 | 1016.2 |
| 20260905070402 | 53 | 78 | 0.0 | 0.0 | 0.00 | 0.05 | 0.00 | 93 | 1016.1 |
| 20260905064902 | 53 | 78 | 0.0 | 0.0 | 0.00 | 0.05 | 0.05 | 93 | 1015.9 |
| 20260905064403 | 53 | 117 | 0.0 | 0.0 | 0.00 | 0.05 | 0.05 | 93 | 1015.8 |
| 20260905063903 | 53 | 117 | 0.0 | 0.0 | 0.00 | 0.05 | 0.05 | 93 | 1015.9 |
| 20260905063403 | 53 | 117 | 0.0 | 0.0 | 0.00 | 0.05 | 0.05 | 93 | 1015.9 |
| 20260905062902 | 53 | 117 | 0.0 | 0.0 | 0.00 | 0.05 | 0.05 | 93 | 1015.8 |
| 20260905062403 | 53 | 117 | 0.0 | 0.0 | 0.00 | 0.05 | 0.05 | 94 | 1015.8 |
| 20260905061902 | 53 | 117 | 0.0 | 0.0 | 0.00 | 0.05 | 0.05 | 94 | 1015.7 |
| 20260905061402 | 52 | 117 | 0.0 | 0.0 | 0.00 | 0.05 | 0.05 | 93 | 1015.7 |
| 20260905060902 | 52 | 117 | 0.0 | 0.0 | 0.00 | 0.05 | 0.05 | 93 | 1015.6 |
| 20260905060402 | 52 | 117 | 0.0 | 0.0 | 0.00 | 0.05 | 0.05 | 93 | 1015.7 |
| 20260905055903 | 52 | 117 | 0.0 | 0.0 | 0.00 | 0.05 | 0.05 | 93 | 1015.6 |
| 20260905054402 | 52 | 117 | 0.0 | 0.0 | 0.00 | 0.05 | 0.05 | 92 | 1015.7 |
| 20260905053903 | 53 | 117 | 0.0 | 0.0 | 0.00 | 0.05 | 0.05 | 92 | 1015.6 |
| 20260905053402 | 53 | 117 | 0.0 | 0.0 | 0.00 | 0.05 | 0.05 | 92 | 1015.6 |
| 20260905052903 | 53 | 117 | 0.0 | 0.0 | 0.00 | 0.05 | 0.05 | 92 | 1015.6 |
| 20260905052402 | 53 | 117 | 0.0 | 0.0 | 0.00 | 0.05 | 0.05 | 92 | 1015.5 |
| 20260905051903 | 53 | 117 | 0.0 | 0.0 | 0.00 | 0.05 | 0.05 | 92 | 1015.6 |
| 20260905051403 | 53 | 117 | 0.0 | 0.0 | 0.00 | 0.05 | 0.05 | 92 | 1015.6 |
| 20260905050903 | 53 | 117 | 0.0 | 0.0 | 0.00 | 0.05 | 0.05 | 92 | 1015.6 |
| 20260905045903 | 53 | 117 | 0.0 | 0.0 | 0.00 | 0.05 | 0.05 | 93 | 1015.5 |
| 20260905045403 | 53 | 117 | 0.0 | 0.0 | 0.00 | 0.05 | 0.05 | 93 | 1015.5 |
| 20260905044902 | 53 | 117 | 0.0 | 0.0 | 0.00 | 0.05 | 0.05 | 93 | 1015.4 |
| 20260905044402 | 53 | 117 | 0.0 | 0.0 | 0.00 | 0.05 | 0.05 | 93 | 1015.5 |
| 20260905043903 | 53 | 117 | 0.0 | 0.0 | 0.00 | 0.05 | 0.05 | 93 | 1015.5 |
| 20260905043403 | 53 | 117 | 0.0 | 0.0 | 0.00 | 0.05 | 0.05 | 93 | 1015.4 |
| 20260905042903 | 53 | 117 | 0.0 | 0.0 | 0.00 | 0.05 | 0.05 | 93 | 1015.4 |
| 20260905042403 | 53 | 117 | 0.0 | 0.0 | 0.00 | 0.05 | 0.05 | 93 | 1015.4 |
| 20260905041902 | 53 | 117 | 0.0 | 0.0 | 0.00 | 0.05 | 0.05 | 93 | 1015.4 |
| 20260905041402 | 53 | 117 | 0.0 | 0.0 | 0.00 | 0.05 | 0.05 | 92 | 1015.3 |
| 20260905040403 | 53 | 117 | 0.0 | 0.0 | 0.00 | 0.05 | 0.05 | 92 | 1015.3 |
| 20260905035903 | 53 | 117 | 0.0 | 0.0 | 0.00 | 0.05 | 0.05 | 91 | 1015.3 |
| 20260905035403 | 53 | 117 | 0.0 | 0.0 | 0.00 | 0.05 | 0.05 | 90 | 1015.2 |
| 20260905034902 | 53 | 117 | 0.0 | 0.0 | 0.00 | 0.05 | 0.05 | 91 | 1015.1 |
| 20260905034402 | 53 | 141 | 0.0 | 0.0 | 0.00 | 0.05 | 0.05 | 90 | 1015.0 |
| 20260905033903 | 53 | 69 | 0.0 | 0.0 | 0.00 | 0.05 | 0.05 | 89 | 1015.0 |
| 20260905033402 | 53 | 69 | 0.0 | 0.0 | 0.00 | 0.05 | 0.05 | 89 | 1015.0 |
| 20260905032903 | 54 | 69 | 0.0 | 0.0 | 0.00 | 0.05 | 0.05 | 89 | 1015.0 |
| 20260905032403 | 54 | 69 | 0.0 | 0.0 | 0.00 | 0.05 | 0.05 | 89 | 1014.9 |
| 20260905031902 | 54 | 69 | 0.0 | 0.0 | 0.00 | 0.05 | 0.05 | 88 | 1014.9 |
| 20260905031403 | 55 | 69 | 0.0 | 0.0 | 0.00 | 0.05 | 0.05 | 87 | 1014.8 |
| 20260905030903 | 55 | 69 | 0.0 | 0.0 | 0.00 | 0.05 | 0.05 | 87 | 1014.7 |
| 20260905030402 | 55 | 69 | 0.0 | 0.0 | 0.00 | 0.05 | 0.05 | 87 | 1014.8 |
| 20260905025903 | 56 | 69 | 0.0 | 0.0 | 0.00 | 0.05 | 0.05 | 86 | 1014.8 |
| 20260905025403 | 56 | 69 | 0.0 | 0.0 | 0.00 | 0.05 | 0.05 | 86 | 1014.8 |
| 20260905024902 | 56 | 69 | 0.0 | 0.0 | 0.00 | 0.05 | 0.05 | 86 | 1014.8 |
| 20260905024402 | 57 | 69 | 0.0 | 0.0 | 0.00 | 0.05 | 0.05 | 85 | 1014.8 |
| 20260905023403 | 57 | 69 | 0.0 | 0.0 | 0.00 | 0.05 | 0.05 | 85 | 1014.9 |
| 20260905022902 | 58 | 69 | 0.0 | 0.0 | 0.00 | 0.05 | 0.05 | 84 | 1014.9 |
| 20260905022403 | 58 | 84 | 0.0 | 0.0 | 0.00 | 0.05 | 0.05 | 83 | 1014.8 |
| 20260905021902 | 58 | 95 | 0.0 | 0.0 | 0.00 | 0.05 | 0.05 | 82 | 1014.8 |
| 20260905020902 | 59 | 82 | 0.0 | 0.0 | 0.00 | 0.05 | 0.05 | 81 | 1014.8 |
| 20260905015903 | 60 | 35 | 0.0 | 0.0 | 0.00 | 0.05 | 0.05 | 80 | 1014.7 |
| 20260905015403 | 60 | 73 | 0.0 | 0.0 | 0.00 | 0.05 | 0.05 | 78 | 1014.5 |
| 20260905014902 | 61 | 63 | 0.0 | 0.0 | 0.00 | 0.05 | 0.05 | 76 | 1014.5 |
| 20260905014403 | 61 | 50 | 0.0 | 0.0 | 0.00 | 0.05 | 0.05 | 72 | 1014.3 |
| 20260905013902 | 61 | 49 | 0.0 | 0.0 | 0.00 | 0.05 | 0.05 | 71 | 1014.3 |
| 20260905012903 | 61 | 89 | 0.0 | 0.0 | 0.00 | 0.05 | 0.05 | 72 | 1014.3 |
| 20260905012402 | 61 | 208 | 0.0 | 2.0 | 0.00 | 0.05 | 0.05 | 72 | 1014.3 |
| 20260905011903 | 61 | 167 | 0.0 | 3.0 | 0.00 | 0.05 | 0.05 | 73 | 1014.2 |
| 20260905011403 | 61 | 102 | 0.0 | 3.0 | 0.00 | 0.05 | 0.05 | 72 | 1014.2 |
| 20260905010902 | 62 | 122 | 1.0 | 3.0 | 0.00 | 0.05 | 0.05 | 73 | 1014.2 |
| 20260905010402 | 62 | 144 | 0.0 | 2.0 | 0.00 | 0.05 | 0.05 | 73 | 1014.1 |
| 20260905005403 | 62 | 81 | 1.0 | 2.0 | 0.00 | 0.05 | 0.05 | 75 | 1014.1 |
| 20260905004402 | 62 | 192 | 0.0 | 3.0 | 0.00 | 0.05 | 0.05 | 76 | 1014.0 |
| 20260905003902 | 62 | 25 | 0.0 | 3.0 | 0.00 | 0.05 | 0.05 | 78 | 1014.1 |
| 20260905002402 | 61 | 40 | 1.0 | 3.0 | 0.00 | 0.05 | 0.05 | 79 | 1014.1 |
| 20260905001902 | 60 | 24 | 1.0 | 3.0 | 0.00 | 0.05 | 0.05 | 81 | 1014.1 |
| 20260905000903 | 60 | 257 | 0.0 | 1.0 | 0.00 | 0.05 | 0.05 | 81 | 1014.1 |
| 20260905000403 | 60 | 0 | 0.0 | 0.0 | 0.00 | 0.05 | 0.05 | 81 | 1014.0 |
| 20260904235402 | 59 | 351 | 0.0 | 0.0 | 0.00 | 0.05 | 0.05 | 81 | 1014.0 |
| 20260904234403 | 59 | 352 | 0.0 | 0.0 | 0.00 | 0.05 | 0.05 | 80 | 1014.0 |
| 20260904233402 | 59 | 357 | 0.0 | 0.0 | 0.01 | 0.05 | 0.05 | 81 | 1014.0 |
| 20260904232902 | 59 | 349 | 0.0 | 0.0 | 0.01 | 0.05 | 0.05 | 80 | 1013.9 |
| 20260904232403 | 59 | 345 | 0.0 | 0.0 | 0.01 | 0.05 | 0.05 | 81 | 1013.9 |
| 20260904231903 | 59 | 314 | 0.0 | 0.0 | 0.01 | 0.05 | 0.05 | 81 | 1014.0 |
| 20260904231402 | 59 | 358 | 0.0 | 0.0 | 0.01 | 0.05 | 0.05 | 83 | 1014.1 |
| 20260904230903 | 59 | 0 | 0.0 | 0.0 | 0.01 | 0.05 | 0.05 | 81 | 1014.1 |
| 20260904225402 | 60 | 0 | 0.0 | 0.0 | 0.01 | 0.05 | 0.05 | 76 | 1014.1 |
| 20260904224903 | 60 | 357 | 0.0 | 2.0 | 0.01 | 0.05 | 0.05 | 75 | 1014.2 |
| 20260904224403 | 60 | 352 | 0.0 | 5.0 | 0.01 | 0.05 | 0.05 | 75 | 1014.2 |
| 20260904223902 | 59 | 342 | 0.0 | 5.0 | 0.00 | 0.04 | 0.04 | 76 | 1014.2 |
| 20260904222903 | 60 | 153 | 1.0 | 7.0 | 0.00 | 0.04 | 0.04 | 78 | 1013.9 |
| 20260904222402 | 60 | 345 | 1.0 | 7.0 | 0.00 | 0.04 | 0.04 | 76 | 1013.8 |
| 20260904221903 | 61 | 249 | 3.0 | 8.0 | 0.00 | 0.04 | 0.04 | 75 | 1013.7 |
| 20260904221403 | 63 | 212 | 2.0 | 16.0 | 0.00 | 0.04 | 0.04 | 73 | 1013.7 |
| 20260904220903 | 65 | 282 | 5.0 | 16.0 | 0.00 | 0.04 | 0.04 | 67 | 1013.5 |
| 20260904220402 | 67 | 228 | 1.0 | 7.0 | 0.00 | 0.04 | 0.04 | 62 | 1013.1 |
| 20260904215903 | 68 | 250 | 0.0 | 2.0 | 0.00 | 0.04 | 0.04 | 59 | 1013.1 |
| 20260904215403 | 67 | 202 | 0.0 | 2.0 | 0.00 | 0.04 | 0.04 | 61 | 1013.0 |
| 20260904214902 | 67 | 302 | 0.0 | 2.0 | 0.00 | 0.04 | 0.04 | 61 | 1013.0 |
| 20260904214402 | 67 | 293 | 0.0 | 2.0 | 0.00 | 0.04 | 0.04 | 61 | 1012.9 |
| 20260904213402 | 67 | 202 | 1.0 | 5.0 | 0.00 | 0.04 | 0.04 | 59 | 1012.6 |
| 20260904212903 | 67 | 150 | 2.0 | 6.0 | 0.00 | 0.04 | 0.04 | 56 | 1012.7 |
| 20260904212404 | 68 | 35 | 2.0 | 6.0 | 0.00 | 0.04 | 0.04 | 58 | 1012.6 |
| 20260904211902 | 68 | 26 | 2.0 | 6.0 | 0.00 | 0.04 | 0.04 | 58 | 1012.6 |
| 20260904211403 | 68 | 111 | 1.0 | 6.0 | 0.00 | 0.04 | 0.04 | 59 | 1012.6 |
| 20260904210903 | 67 | 23 | 3.0 | 6.0 | 0.00 | 0.04 | 0.04 | 61 | 1012.6 |
| 20260904205903 | 67 | 10 | 2.0 | 6.0 | 0.00 | 0.04 | 0.04 | 62 | 1012.6 |
| 20260904205403 | 67 | 340 | 2.0 | 6.0 | 0.00 | 0.04 | 0.04 | 62 | 1012.5 |
| 20260904204902 | 67 | 25 | 1.0 | 6.0 | 0.00 | 0.04 | 0.04 | 61 | 1012.5 |
| 20260904204402 | 67 | 219 | 2.0 | 5.0 | 0.00 | 0.04 | 0.04 | 65 | 1012.4 |
| 20260904203903 | 67 | 207 | 0.0 | 3.0 | 0.00 | 0.04 | 0.04 | 64 | 1012.5 |
| 20260904203403 | 66 | 307 | 0.0 | 6.0 | 0.00 | 0.04 | 0.04 | 66 | 1012.5 |
| 20260904202902 | 66 | 43 | 1.0 | 6.0 | 0.00 | 0.04 | 0.04 | 64 | 1012.5 |
| 20260904202403 | 66 | 33 | 1.0 | 6.0 | 0.00 | 0.04 | 0.04 | 63 | 1012.5 |
| 20260904201902 | 67 | 23 | 2.0 | 7.0 | 0.00 | 0.04 | 0.04 | 65 | 1012.6 |
| 20260904201402 | 67 | 19 | 3.0 | 7.0 | 0.00 | 0.04 | 0.04 | 65 | 1012.6 |
| 20260904200402 | 67 | 231 | 1.0 | 5.0 | 0.00 | 0.04 | 0.04 | 63 | 1012.7 |
| 20260904195903 | 66 | 238 | 0.0 | 5.0 | 0.00 | 0.06 | 0.04 | 65 | 1012.7 |
| 20260904195402 | 66 | 206 | 2.0 | 5.0 | 0.00 | 0.18 | 0.04 | 66 | 1012.7 |
| 20260904194903 | 66 | 191 | 1.0 | 3.0 | 0.00 | 0.18 | 0.04 | 69 | 1012.7 |
| 20260904194402 | 66 | 317 | 0.0 | 3.0 | 0.00 | 0.18 | 0.04 | 70 | 1012.8 |
| 20260904193902 | 66 | 230 | 1.0 | 3.0 | 0.00 | 0.18 | 0.04 | 68 | 1012.9 |
| 20260904193402 | 66 | 202 | 1.0 | 3.0 | 0.00 | 0.18 | 0.04 | 70 | 1012.9 |
| 20260904192903 | 66 | 187 | 1.0 | 3.0 | 0.00 | 0.18 | 0.04 | 70 | 1012.9 |
| 20260904192402 | 65 | 136 | 0.0 | 3.0 | 0.00 | 0.18 | 0.04 | 72 | 1013.0 |
| 20260904191902 | 65 | 69 | 1.0 | 3.0 | 0.00 | 0.18 | 0.04 | 65 | 1013.0 |
| 20260904191402 | 66 | 278 | 1.0 | 3.0 | 0.00 | 0.18 | 0.04 | 68 | 1013.0 |
| 20260904190903 | 66 | 264 | 1.0 | 3.0 | 0.00 | 0.18 | 0.04 | 67 | 1013.0 |
| 20260904190402 | 66 | 192 | 1.0 | 3.0 | 0.00 | 0.18 | 0.04 | 71 | 1013.0 |
| 20260904184902 | 65 | 122 | 2.0 | 3.0 | 0.00 | 0.18 | 0.04 | 66 | 1013.0 |
| 20260904184402 | 65 | 251 | 0.0 | 2.0 | 0.00 | 0.18 | 0.04 | 71 | 1013.0 |
| 20260904183902 | 64 | 66 | 0.0 | 2.0 | 0.00 | 0.18 | 0.04 | 70 | 1013.0 |
| 20260904183403 | 64 | 63 | 0.0 | 2.0 | 0.00 | 0.18 | 0.04 | 72 | 1013.0 |
| 20260904182902 | 64 | 170 | 1.0 | 2.0 | 0.00 | 0.18 | 0.04 | 70 | 1013.1 |
| 20260904182403 | 63 | 263 | 0.0 | 2.0 | 0.00 | 0.18 | 0.04 | 75 | 1013.0 |
| 20260904181902 | 63 | 282 | 0.0 | 2.0 | 0.00 | 0.18 | 0.04 | 75 | 1013.0 |
| 20260904181403 | 63 | 350 | 0.0 | 2.0 | 0.00 | 0.18 | 0.04 | 77 | 1013.0 |
| 20260904180902 | 62 | 283 | 0.0 | 2.0 | 0.00 | 0.18 | 0.04 | 76 | 1012.9 |
| 20260904175902 | 62 | 316 | 0.0 | 2.0 | 0.00 | 0.18 | 0.04 | 81 | 1012.9 |
| 20260904174902 | 61 | 9 | 0.0 | 1.0 | 0.00 | 0.19 | 0.04 | 82 | 1013.0 |
| 20260904174403 | 61 | 236 | 0.0 | 2.0 | 0.00 | 0.19 | 0.04 | 84 | 1012.9 |
| 20260904173903 | 60 | 218 | 0.0 | 2.0 | 0.00 | 0.19 | 0.04 | 84 | 1012.9 |
| 20260904173402 | 60 | 187 | 0.0 | 3.0 | 0.00 | 0.19 | 0.04 | 86 | 1012.8 |
| 20260904172902 | 60 | 292 | 1.0 | 3.0 | 0.00 | 0.19 | 0.04 | 86 | 1012.8 |
| 20260904172403 | 60 | 237 | 0.0 | 3.0 | 0.00 | 0.19 | 0.04 | 87 | 1012.8 |
| 20260904171902 | 60 | 6 | 0.0 | 3.0 | 0.00 | 0.19 | 0.04 | 88 | 1012.7 |
| 20260904171402 | 60 | 288 | 1.0 | 3.0 | 0.00 | 0.19 | 0.04 | 89 | 1012.7 |
| 20260904170403 | 58 | 84 | 1.0 | 2.0 | 0.00 | 0.19 | 0.04 | 89 | 1012.7 |
| 20260904165902 | 58 | 259 | 0.0 | 2.0 | 0.00 | 0.19 | 0.04 | 89 | 1012.8 |
| 20260904165403 | 58 | 342 | 0.0 | 2.0 | 0.00 | 0.19 | 0.04 | 90 | 1012.7 |
| 20260904164403 | 58 | 271 | 1.0 | 2.0 | 0.00 | 0.19 | 0.04 | 89 | 1012.7 |
| 20260904163403 | 56 | 21 | 1.0 | 2.0 | 0.00 | 0.19 | 0.04 | 91 | 1012.7 |
| 20260904162402 | 55 | 40 | 0.0 | 3.0 | 0.00 | 0.19 | 0.04 | 92 | 1012.7 |
| 20260904161902 | 55 | 85 | 0.0 | 3.0 | 0.00 | 0.19 | 0.04 | 93 | 1012.8 |
| 20260904161402 | 55 | 71 | 0.0 | 0.0 | 0.00 | 0.19 | 0.04 | 94 | 1012.7 |
| 20260904160903 | 54 | 222 | 0.0 | 2.0 | 0.00 | 0.19 | 0.04 | 95 | 1012.7 |
| 20260904160402 | 54 | 290 | 0.0 | 2.0 | 0.00 | 0.19 | 0.04 | 95 | 1012.7 |
| 20260904155902 | 54 | 258 | 0.0 | 2.0 | 0.00 | 0.19 | 0.04 | 95 | 1012.7 |
| 20260904155402 | 54 | 186 | 0.0 | 0.0 | 0.00 | 0.19 | 0.04 | 95 | 1012.6 |
| 20260904154903 | 53 | 155 | 0.0 | 0.0 | 0.00 | 0.19 | 0.04 | 95 | 1012.5 |
| 20260904154402 | 53 | 134 | 0.0 | 0.0 | 0.00 | 0.19 | 0.04 | 95 | 1012.5 |
| 20260904153902 | 53 | 118 | 0.0 | 0.0 | 0.00 | 0.19 | 0.04 | 95 | 1012.6 |
| 20260904153402 | 53 | 76 | 0.0 | 0.0 | 0.00 | 0.19 | 0.04 | 95 | 1012.5 |
| 20260904152903 | 53 | 84 | 0.0 | 0.0 | 0.00 | 0.19 | 0.04 | 95 | 1012.5 |
| 20260904152403 | 53 | 84 | 0.0 | 0.0 | 0.00 | 0.19 | 0.04 | 95 | 1012.4 |
| 20260904151902 | 53 | 67 | 0.0 | 0.0 | 0.00 | 0.20 | 0.04 | 95 | 1012.3 |
| 20260904151402 | 52 | 73 | 0.0 | 0.0 | 0.00 | 0.20 | 0.04 | 95 | 1012.3 |
| 20260904150903 | 52 | 143 | 0.0 | 0.0 | 0.00 | 0.20 | 0.04 | 95 | 1012.3 |
| 20260904150402 | 52 | 190 | 0.0 | 0.0 | 0.00 | 0.20 | 0.04 | 95 | 1012.4 |
| 20260904145902 | 52 | 192 | 0.0 | 0.0 | 0.00 | 0.20 | 0.04 | 95 | 1012.3 |
| 20260904145402 | 52 | 191 | 0.0 | 0.0 | 0.01 | 0.20 | 0.04 | 95 | 1012.2 |
| 20260904144902 | 52 | 188 | 0.0 | 0.0 | 0.01 | 0.20 | 0.04 | 95 | 1012.2 |
| 20260904144403 | 52 | 192 | 0.0 | 0.0 | 0.01 | 0.20 | 0.04 | 95 | 1012.1 |
| 20260904143403 | 52 | 81 | 0.0 | 0.0 | 0.01 | 0.20 | 0.04 | 95 | 1012.1 |
| 20260904142902 | 52 | 79 | 0.0 | 2.0 | 0.01 | 0.20 | 0.04 | 95 | 1012.1 |
| 20260904141902 | 52 | 75 | 0.0 | 5.0 | 0.01 | 0.20 | 0.04 | 95 | 1012.0 |
| 20260904141403 | 52 | 38 | 1.0 | 5.0 | 0.01 | 0.20 | 0.04 | 95 | 1011.9 |
| 20260904140402 | 52 | 33 | 0.0 | 1.0 | 0.01 | 0.20 | 0.04 | 95 | 1012.0 |
| 20260904135902 | 52 | 359 | 0.0 | 0.0 | 0.01 | 0.20 | 0.04 | 95 | 1012.0 |
| 20260904135402 | 52 | 209 | 0.0 | 2.0 | 0.01 | 0.19 | 0.03 | 95 | 1012.0 |
| 20260904134903 | 52 | 209 | 0.0 | 2.0 | 0.01 | 0.19 | 0.03 | 95 | 1011.8 |